FW1475 Weather Reports


time (UTC)temp
C
wind
direction
speed
KPH
gust
KPH
rain 1hr
cm
rain 24hr
cm
rain mn
cm
humidity
%
barometer
mb
20260502180504 21 198 1.6 3.2 0.00 0.00 0.00 56 1024.5
20260502180441 21 197 1.6 1.6 0.00 0.00 0.00 57 1019.9
20260502170503 20 29 3.2 9.7 0.00 0.00 0.00 60 1024.9
20260502170401 20 26 6.4 9.7 0.00 0.00 0.00 60 1020.3
20260502164348 19 5 1.6 3.2 0.00 0.00 0.00 61 1020.2
20260502164004 19 289 1.6 4.8 0.00 0.00 0.00 65 1024.6
20260502163843 19 230 0.0 0.0 0.00 0.00 0.00 65 1020.0
20260502163503 18 92 0.0 4.8 0.00 0.00 0.00 66 1024.5
20260502163340 18 141 0.0 1.6 0.00 0.00 0.00 65 1019.9
20260502163004 18 4 3.2 11.3 0.00 0.00 0.00 66 1024.5
20260502162838 18 316 1.6 3.2 0.00 0.00 0.00 66 1020.0
20260502162334 18 337 0.0 1.6 0.00 0.00 0.00 66 1020.0
20260502161832 18 32 4.8 4.8 0.00 0.00 0.00 67 1020.1
20260502161503 18 29 3.2 8.0 0.00 0.00 0.00 68 1024.6
20260502161327 18 34 6.4 8.0 0.00 0.00 0.00 68 1020.1
20260502161003 18 314 1.6 3.2 0.00 0.00 0.00 66 1024.6
20260502160826 18 47 3.2 3.2 0.00 0.00 0.00 68 1020.2
20260502160503 18 156 1.6 3.2 0.00 0.00 0.00 72 1024.6
20260502160324 18 144 0.0 0.0 0.00 0.00 0.00 70 1020.1
20260502152259 16 29 0.0 0.0 0.00 0.00 0.00 76 1020.2
20260502151756 16 29 6.4 9.7 0.00 0.00 0.00 75 1020.1
20260502151504 17 32 1.6 3.2 0.00 0.00 0.00 79 1024.6
20260502151253 17 21 1.6 3.2 0.00 0.00 0.00 80 1020.2
20260502151004 16 5 1.6 3.2 0.00 0.00 0.00 83 1024.4
20260502150752 16 271 0.0 0.0 0.00 0.00 0.00 83 1020.1
20260502150504 16 203 0.0 4.8 0.00 0.00 0.00 83 1024.6
20260502150247 16 230 1.6 1.6 0.00 0.00 0.00 82 1020.1
20260502130636 11 6 0.0 0.0 0.00 0.00 0.00 99 1019.2
20260502130503 11 89 0.0 1.6 0.00 0.00 0.00 99 1023.4
20260502130134 11 226 0.0 0.0 0.00 0.00 0.00 99 1018.7
20260502123620 11 233 0.0 0.0 0.00 0.00 0.00 99 1018.4
20260502123503 11 236 0.0 0.0 0.00 0.00 0.00 99 1023.0
20260502123116 11 241 0.0 0.0 0.00 0.00 0.00 99 1018.1
20260502123003 11 233 0.0 0.0 0.00 0.00 0.00 99 1022.7
20260502122613 11 266 0.0 0.0 0.00 0.00 0.00 99 1018.0
20260502122109 10 241 0.0 0.0 0.00 0.00 0.00 99 1018.1
20260502121607 10 242 0.0 0.0 0.00 0.00 0.00 99 1017.7
20260502121504 10 241 0.0 0.0 0.00 0.00 0.00 99 1022.5
20260502121105 10 235 0.0 0.0 0.00 0.00 0.00 99 1017.9
20260502120600 10 235 0.0 0.0 0.00 0.00 0.00 99 1017.8
20260502120504 10 234 0.0 0.0 0.00 0.00 0.00 99 1022.3
20260502115556 10 235 0.0 0.0 0.00 0.00 0.00 99 1017.5
20260502115051 10 234 0.0 0.0 0.00 0.00 0.00 99 1017.5
20260502114548 10 234 0.0 0.0 0.00 0.00 0.00 99 1017.5
20260502114045 10 234 0.0 0.0 0.00 0.00 0.00 99 1017.3
20260502114004 10 234 0.0 0.0 0.00 0.00 0.00 99 1021.9
20260502113542 10 234 0.0 0.0 0.00 0.00 0.00 99 1017.4
20260502113041 10 234 0.0 0.0 0.00 0.00 0.00 99 1017.2
20260502113004 10 235 0.0 0.0 0.00 0.00 0.00 99 1021.8
20260502112538 11 242 0.0 0.0 0.00 0.00 0.00 99 1017.3
20260502112036 11 238 0.0 0.0 0.00 0.00 0.00 99 1017.0
20260502111533 11 241 0.0 0.0 0.00 0.00 0.00 99 1016.9
20260502111503 11 237 0.0 0.0 0.00 0.00 0.00 99 1021.5
20260502111030 11 239 0.0 0.0 0.00 0.00 0.00 99 1016.8
20260502110527 11 239 0.0 0.0 0.00 0.00 0.00 99 1017.0
20260502110503 11 239 0.0 0.0 0.00 0.00 0.00 99 1021.5
20260502110025 11 239 0.0 0.0 0.00 0.00 0.00 99 1016.7
20260502110004 11 239 0.0 0.0 0.00 0.00 0.00 99 1021.2
20260502105522 11 239 0.0 0.0 0.00 0.00 0.00 99 1016.7
20260502105020 11 239 0.0 0.0 0.00 0.00 0.00 99 1016.7
20260502104516 11 239 0.0 0.0 0.00 0.00 0.00 99 1016.5
20260502104504 11 239 0.0 0.0 0.00 0.00 0.00 99 1021.1
20260502104014 11 239 0.0 0.0 0.00 0.00 0.00 99 1016.4
20260502103512 11 239 0.0 0.0 0.00 0.00 0.00 99 1016.6
20260502103504 11 239 0.0 0.0 0.00 0.00 0.00 99 1021.1
20260502103010 11 239 0.0 0.0 0.00 0.00 0.00 99 1016.5
20260502103004 11 239 0.0 0.0 0.00 0.00 0.00 99 1021.1
20260502102506 11 239 0.0 0.0 0.00 0.00 0.00 99 1016.3
20260502102003 11 239 0.0 0.0 0.00 0.00 0.00 99 1016.4
20260502101504 11 239 0.0 0.0 0.00 0.00 0.00 99 1021.0
20260502101501 11 239 0.0 0.0 0.00 0.00 0.00 99 1016.5
20260502101004 11 239 0.0 0.0 0.00 0.00 0.00 99 1021.2
20260502100959 11 239 0.0 0.0 0.00 0.00 0.00 99 1016.3
20260502100504 11 239 0.0 0.0 0.00 0.00 0.00 99 1020.8
20260502100457 11 239 0.0 0.0 0.00 0.00 0.00 99 1016.3
20260502091503 11 239 0.0 0.0 0.00 0.00 0.00 99 1020.6
20260502091432 11 239 0.0 0.0 0.00 0.00 0.00 99 1016.1
20260502091004 11 240 0.0 0.0 0.00 0.00 0.00 99 1020.7
20260502090928 11 240 0.0 0.0 0.00 0.00 0.00 99 1016.3
20260502090504 11 344 0.0 0.0 0.00 0.00 0.00 99 1020.7
20260502090426 11 344 0.0 0.0 0.00 0.00 0.00 99 1016.2
20260502071504 11 284 0.0 0.0 0.00 0.00 0.00 99 1020.8
20260502071320 11 284 0.0 0.0 0.00 0.00 0.00 99 1016.0
20260502070818 11 284 0.0 0.0 0.00 0.00 0.00 99 1016.2
20260502070504 11 284 0.0 0.0 0.00 0.00 0.00 99 1020.6
20260502070315 11 283 0.0 0.0 0.00 0.00 0.00 99 1016.1
20260502065815 11 284 0.0 0.0 0.00 0.00 0.00 99 1016.1
20260502065313 11 285 0.0 0.0 0.00 0.00 0.00 99 1016.2
20260502064810 12 284 0.0 0.0 0.00 0.00 0.00 99 1016.2
20260502064504 12 284 0.0 0.0 0.00 0.00 0.00 99 1020.8
20260502064308 12 285 0.0 0.0 0.00 0.00 0.00 99 1016.0
20260502063805 12 284 0.0 0.0 0.00 0.00 0.00 99 1016.1
20260502063504 12 284 0.0 0.0 0.00 0.00 0.00 99 1020.6
20260502063303 12 284 0.0 0.0 0.00 0.00 0.00 99 1015.7
20260502063004 12 285 0.0 0.0 0.00 0.00 0.00 99 1020.7
20260502062759 11 285 0.0 0.0 0.00 0.00 0.00 99 1016.0
20260502062257 12 285 0.0 0.0 0.00 0.00 0.00 99 1016.0
20260502061756 12 285 0.0 0.0 0.00 0.00 0.00 99 1016.0
20260502061504 12 285 0.0 0.0 0.00 0.00 0.00 99 1020.5
20260502061253 12 259 0.0 0.0 0.00 0.00 0.00 99 1016.1
20260502061004 12 289 0.0 0.0 0.00 0.00 0.00 99 1020.6
20260502060753 12 264 0.0 0.0 0.00 0.00 0.00 99 1016.0
20260502060504 12 264 0.0 0.0 0.00 0.00 0.00 99 1020.6
20260502060249 12 265 0.0 0.0 0.00 0.00 0.00 99 1015.9
20260502060004 12 265 0.0 0.0 0.00 0.00 0.00 99 1020.6
20260502055747 12 265 0.0 0.0 0.00 0.00 0.00 99 1016.2
20260502055244 12 265 0.0 0.0 0.00 0.00 0.00 99 1016.0
20260502054744 12 264 0.0 0.0 0.00 0.00 0.00 99 1015.8
20260502054504 12 264 0.0 0.0 0.00 0.00 0.00 99 1020.4
20260502054241 12 264 0.0 0.0 0.00 0.00 0.00 99 1015.9
20260502054004 12 264 0.0 0.0 0.00 0.00 0.00 99 1020.3
20260502053738 12 264 0.0 0.0 0.00 0.00 0.00 99 1015.9
20260502053504 12 264 0.0 0.0 0.00 0.00 0.00 99 1020.3
20260502053235 12 264 0.0 0.0 0.00 0.00 0.00 99 1015.6
20260502053004 12 264 0.0 0.0 0.00 0.00 0.00 99 1020.3
20260502052733 12 264 0.0 0.0 0.00 0.00 0.00 99 1015.7
20260502052231 12 264 0.0 0.0 0.00 0.00 0.00 99 1016.0
20260502051729 12 264 0.0 0.0 0.00 0.00 0.00 99 1015.9
20260502051503 12 263 0.0 0.0 0.00 0.00 0.00 99 1020.5
20260502051227 12 263 0.0 0.0 0.00 0.00 0.00 99 1015.9
20260502051004 12 263 0.0 0.0 0.00 0.00 0.00 99 1020.5
20260502050723 12 263 0.0 0.0 0.00 0.00 0.00 99 1015.7
20260502050504 12 263 0.0 0.0 0.00 0.00 0.00 99 1020.3
20260502050219 12 263 0.0 0.0 0.00 0.00 0.00 99 1015.8
20260502050004 12 263 0.0 0.0 0.00 0.03 0.00 99 1020.3
20260502045716 12 263 0.0 0.0 0.00 0.00 0.00 99 1015.8
20260502045213 12 264 0.0 0.0 0.00 0.00 0.00 99 1016.2
20260502044710 12 264 0.0 0.0 0.00 0.00 0.00 99 1015.9
20260502044504 12 264 0.0 0.0 0.00 0.03 0.00 99 1020.6
20260502044206 12 264 0.0 0.0 0.00 0.00 0.00 99 1015.9
20260502044003 12 264 0.0 0.0 0.00 0.03 0.00 99 1020.4
20260502043704 12 264 0.0 0.0 0.00 0.00 0.00 99 1016.1
20260502043503 12 264 0.0 0.0 0.00 0.03 0.00 99 1020.5
20260502043201 12 264 0.0 0.0 0.00 0.00 0.00 99 1016.2
20260502043004 12 264 0.0 0.0 0.00 0.03 0.00 99 1020.5
20260502042700 12 264 0.0 0.0 0.00 0.00 0.00 99 1016.1
20260502042158 12 264 0.0 0.0 0.00 0.00 0.00 99 1016.1
20260502041655 12 264 0.0 0.0 0.00 0.00 0.00 99 1016.0
20260502041504 12 264 0.0 0.0 0.00 0.03 0.00 99 1020.6
20260502041153 12 264 0.0 0.0 0.00 0.00 0.00 99 1016.1
20260502040649 12 264 0.0 0.0 0.00 0.00 0.00 99 1016.1
20260502040503 12 264 0.0 0.0 0.00 0.03 0.00 99 1020.5
20260502040147 12 264 0.0 0.0 0.00 0.00 0.00 99 1015.9
20260502035643 12 272 0.0 0.0 0.00 0.00 0.00 99 1015.9
20260502035139 12 283 0.0 0.0 0.00 0.00 0.00 99 1015.9
20260502034638 12 279 0.0 0.0 0.00 0.00 0.00 99 1015.9
20260502034504 12 267 0.0 1.6 0.00 0.03 0.00 99 1020.2
20260502034136 12 132 0.0 0.0 0.00 0.00 0.00 99 1016.0
20260502034004 12 357 0.0 0.0 0.00 0.03 0.00 99 1020.6
20260502033633 12 16 0.0 0.0 0.00 0.00 0.00 99 1015.9
20260502033503 12 345 0.0 1.6 0.00 0.03 0.00 99 1020.6
20260502033131 11 302 0.0 0.0 0.00 0.00 0.00 99 1016.1
20260502033004 11 235 0.0 1.6 0.00 0.03 0.00 99 1020.6
20260502032626 11 195 0.0 0.0 0.00 0.00 0.00 99 1016.3
20260502032123 11 201 0.0 0.0 0.00 0.00 0.00 99 1016.1
20260502031621 11 270 0.0 0.0 0.00 0.00 0.00 99 1016.5
20260502031503 11 270 0.0 0.0 0.00 0.03 0.00 99 1020.9
20260502031119 11 270 0.0 0.0 0.00 0.00 0.00 99 1016.3
20260502031003 11 270 0.0 0.0 0.00 0.03 0.00 99 1020.9
20260502030618 11 270 0.0 0.0 0.00 0.00 0.00 99 1016.6
20260502030503 11 270 0.0 0.0 0.00 0.03 0.00 99 1021.0
20260502030115 11 270 0.0 0.0 0.00 0.00 0.00 99 1016.2
20260502030003 11 270 0.0 0.0 0.00 0.03 0.00 99 1020.7
20260502025612 11 287 0.0 0.0 0.00 0.00 0.00 99 1016.2
20260502025110 11 260 0.0 0.0 0.00 0.00 0.00 99 1016.0
20260502024608 11 258 0.0 0.0 0.00 0.00 0.00 99 1015.9
20260502024503 11 258 0.0 0.0 0.00 0.03 0.00 99 1020.2
20260502024106 11 258 0.0 0.0 0.00 0.00 0.00 99 1015.7
20260502024003 11 258 0.0 0.0 0.00 0.03 0.00 99 1020.3
20260502023603 11 258 0.0 0.0 0.00 0.00 0.00 99 1015.6
20260502023504 11 248 0.0 0.0 0.00 0.03 0.00 99 1019.9
20260502023100 11 248 0.0 0.0 0.00 0.00 0.00 99 1015.5
20260502023003 11 247 0.0 0.0 0.00 0.03 0.00 99 1020.1
20260502022556 11 280 0.0 0.0 0.00 0.00 0.00 99 1015.5
20260502022054 11 268 0.0 0.0 0.00 0.00 0.00 99 1015.7
20260502021551 11 261 0.0 0.0 0.00 0.00 0.00 99 1015.8
20260502021504 11 262 0.0 0.0 0.00 0.03 0.00 99 1020.2
20260502021048 11 207 0.0 0.0 0.00 0.00 0.00 99 1016.0
20260502021004 11 207 0.0 0.0 0.00 0.03 0.00 99 1020.6
20260502020546 11 193 0.0 0.0 0.00 0.00 0.00 99 1016.0
20260502020042 11 226 0.0 0.0 0.00 0.00 0.00 99 1015.8
20260502020004 11 226 0.0 0.0 0.00 0.03 0.00 99 1020.4
20260502015540 11 225 0.0 0.0 0.00 0.00 0.00 99 1015.8
20260502015036 11 221 0.0 0.0 0.00 0.00 0.00 99 1015.6
20260502014534 11 216 0.0 0.0 0.00 0.00 0.00 99 1015.5
20260502014504 11 205 0.0 0.0 0.00 0.03 0.00 99 1019.8
20260502014031 11 205 0.0 0.0 0.00 0.00 0.00 99 1015.0
20260502014004 11 200 0.0 0.0 0.00 0.03 0.00 99 1019.8
20260502013526 11 164 0.0 0.0 0.00 0.00 0.00 99 1015.2
20260502013503 11 227 0.0 0.0 0.00 0.03 0.00 99 1019.7
20260502013022 11 239 0.0 0.0 0.00 0.00 0.00 99 1015.4
20260502012520 11 240 0.0 0.0 0.00 0.00 0.00 99 1015.6
20260502012018 11 239 0.0 0.0 0.00 0.00 0.00 99 1015.1
20260502011514 11 240 0.0 0.0 0.00 0.00 0.00 99 1015.0
20260502011504 11 233 0.0 1.6 0.00 0.03 0.00 99 1019.3
20260502011010 11 310 0.0 1.6 0.00 0.00 0.00 99 1014.2
20260502011004 11 1 1.6 3.2 0.00 0.03 0.00 99 1018.8
20260502010508 11 304 0.0 0.0 0.00 0.00 0.00 99 1014.4
20260502010504 11 311 0.0 0.0 0.00 0.03 0.00 99 1019.0
20260502010004 11 232 0.0 0.0 0.00 0.03 0.00 99 1019.1
20260502005502 11 254 0.0 0.0 0.00 0.00 0.00 99 1014.4
20260502004959 11 277 0.0 0.0 0.00 0.00 0.00 99 1014.1
20260502004503 11 287 0.0 4.8 0.00 0.03 0.00 99 1018.8
20260502004455 11 295 0.0 0.0 0.00 0.00 0.00 99 1014.3
20260502004004 11 166 0.0 3.2 0.00 0.03 0.00 99 1019.0
20260502003952 11 16 1.6 1.6 0.00 0.00 0.00 99 1014.3
20260502003504 11 333 1.6 4.8 0.00 0.03 0.00 99 1018.7
20260502003449 11 321 1.6 3.2 0.00 0.00 0.00 99 1014.2
20260502002945 11 296 0.0 0.0 0.00 0.00 0.00 99 1014.2
20260502002443 11 287 0.0 0.0 0.00 0.00 0.00 99 1014.1
20260502001941 11 310 4.8 8.0 0.00 0.00 0.00 99 1014.1
20260502001504 11 320 3.2 8.0 0.00 0.03 0.00 99 1018.5
20260502001438 11 299 3.2 3.2 0.00 0.00 0.00 99 1014.1
20260502000935 11 255 1.6 1.6 0.00 0.00 0.00 99 1013.9
20260502000434 11 26 3.2 3.2 0.00 0.00 0.00 99 1013.9
20260502000004 11 347 1.6 9.7 0.00 0.03 0.00 99 1018.8
20260501235929 11 17 3.2 3.2 0.00 0.00 0.00 99 1014.1
20260501235425 11 297 0.0 0.0 0.00 0.00 0.00 99 1014.1
20260501234921 11 286 0.0 1.6 0.00 0.00 0.00 99 1014.0
20260501234504 11 12 1.6 4.8 0.00 0.03 0.00 99 1018.4
20260501234418 11 13 0.0 1.6 0.00 0.00 0.00 99 1013.9
20260501234004 11 348 3.2 8.0 0.00 0.03 0.00 99 1018.4
20260501233916 11 344 6.4 8.0 0.00 0.00 0.00 99 1013.9
20260501233504 11 52 3.2 9.7 0.00 0.03 0.00 99 1018.1
20260501233413 11 13 1.6 3.2 0.00 0.00 0.00 99 1013.7
20260501233004 11 319 1.6 9.7 0.00 0.03 0.00 99 1018.3
20260501232909 11 337 0.0 1.6 0.00 0.00 0.00 99 1013.8
20260501232406 11 252 0.0 0.0 0.00 0.00 0.00 99 1013.8
20260501231903 11 269 1.6 1.6 0.00 0.00 0.00 99 1013.7
20260501231401 11 219 0.0 0.0 0.00 0.00 0.00 99 1014.2
20260501231004 11 15 3.2 4.8 0.00 0.03 0.00 99 1018.7
20260501230900 11 25 3.2 3.2 0.00 0.00 0.00 99 1014.2
20260501230504 11 289 1.6 4.8 0.00 0.03 0.00 99 1018.8
20260501230358 11 285 1.6 1.6 0.00 0.00 0.00 99 1014.3
20260501230003 11 248 1.6 9.7 0.00 0.03 0.00 99 1018.5
20260501225855 11 237 1.6 1.6 0.00 0.00 0.00 99 1013.9
20260501225353 11 6 1.6 1.6 0.00 0.00 0.00 99 1013.7
20260501224848 11 3 4.8 8.0 0.00 0.00 0.00 99 1013.6
20260501224346 11 1 1.6 1.6 0.00 0.00 0.00 99 1013.7
20260501223842 11 17 3.2 3.2 0.00 0.00 0.00 99 1013.4
20260501223504 11 6 1.6 9.7 0.00 0.03 0.00 99 1018.0
20260501223339 11 353 3.2 3.2 0.00 0.00 0.00 99 1013.5
20260501223004 11 2 1.6 9.7 0.00 0.03 0.00 99 1018.3
20260501222834 11 283 1.6 1.6 0.00 0.00 0.00 99 1013.8
20260501222333 11 167 0.0 0.0 0.00 0.00 0.00 99 1014.1
20260501221829 11 353 6.4 9.7 0.00 0.00 0.00 99 1013.9
20260501221504 11 17 3.2 8.0 0.00 0.03 0.00 99 1017.9
20260501221326 11 3 4.8 8.0 0.00 0.00 0.00 99 1013.4
20260501221004 11 0 1.6 4.8 0.00 0.03 0.00 99 1017.7
20260501220824 11 6 0.0 1.6 0.00 0.00 0.00 99 1013.4
20260501220503 11 349 0.0 1.6 0.00 0.03 0.00 99 1017.9
20260501220321 11 297 0.0 1.6 0.00 0.00 0.00 99 1013.6
20260501220003 11 333 1.6 4.8 0.00 0.03 0.00 99 1018.0
20260501215818 11 333 1.6 1.6 0.00 0.00 0.00 99 1013.6
20260501215314 11 271 0.0 0.0 0.00 0.00 0.00 99 1013.4
20260501214809 11 237 0.0 0.0 0.00 0.00 0.00 99 1013.3
20260501214504 11 259 0.0 3.2 0.00 0.03 0.00 99 1017.6
20260501214305 11 21 1.6 3.2 0.00 0.00 0.00 99 1013.0
20260501214004 11 301 1.6 1.6 0.00 0.03 0.00 99 1017.5
20260501213801 11 344 1.6 1.6 0.00 0.00 0.00 99 1013.0
20260501213504 11 14 0.0 3.2 0.00 0.03 0.00 99 1017.6
20260501213257 11 36 0.0 0.0 0.00 0.00 0.00 99 1013.0
20260501213004 11 336 1.6 8.0 0.00 0.03 0.00 99 1017.4
20260501212753 11 10 1.6 1.6 0.00 0.00 0.00 99 1013.0
20260501212250 11 329 4.8 8.0 0.00 0.00 0.00 99 1013.1
20260501211748 11 36 1.6 1.6 0.00 0.00 0.00 99 1013.3
20260501211503 11 333 1.6 3.2 0.00 0.03 0.00 99 1017.9
20260501211244 11 316 1.6 1.6 0.00 0.00 0.00 99 1013.6
20260501211004 11 321 1.6 11.3 0.00 0.03 0.00 99 1017.9
20260501210742 11 253 0.0 0.0 0.00 0.00 0.00 99 1013.5
20260501210504 11 1 3.2 11.3 0.00 0.03 0.00 99 1018.0
20260501210238 11 300 1.6 3.2 0.00 0.00 0.00 99 1013.3
20260501205734 11 35 1.6 3.2 0.00 0.00 0.00 99 1013.2
20260501205231 11 356 1.6 1.6 0.00 0.00 0.00 99 1013.0
20260501204729 11 347 1.6 1.6 0.00 0.00 0.00 99 1012.8
20260501204505 11 3 3.2 8.0 0.00 0.03 0.00 99 1017.5
20260501204225 11 21 4.8 4.8 0.00 0.00 0.00 99 1013.1
20260501203721 11 351 0.0 0.0 0.00 0.00 0.00 99 1013.0
20260501203504 11 19 3.2 8.0 0.00 0.03 0.00 99 1017.4
20260501203219 11 6 4.8 8.0 0.00 0.00 0.00 99 1012.8
20260501203004 11 341 3.2 9.7 0.00 0.03 0.00 99 1017.1
20260501202716 11 24 4.8 8.0 0.00 0.00 0.00 99 1012.7
20260501202213 11 0 4.8 9.7 0.00 0.00 0.00 99 1012.4
20260501201709 11 24 4.8 4.8 0.00 0.00 0.00 99 1012.2
20260501201504 11 11 1.6 9.7 0.00 0.03 0.00 99 1016.4
20260501201206 11 23 8.0 9.7 0.00 0.00 0.00 99 1011.7
20260501201004 11 356 3.2 4.8 0.00 0.03 0.00 99 1016.4
20260501200702 11 231 0.0 0.0 0.00 0.00 0.00 99 1011.9
20260501200504 11 267 1.6 12.9 0.00 0.03 0.00 99 1016.2
20260501200200 11 221 0.0 1.6 0.00 0.00 0.00 99 1011.7
20260501200004 11 330 3.2 16.1 0.00 0.03 0.00 99 1016.4
20260501195657 11 24 0.0 1.6 0.00 0.00 0.00 99 1011.8
20260501195153 11 292 1.6 1.6 0.00 0.00 0.00 99 1011.3
20260501194649 11 207 1.6 3.2 0.00 0.00 0.00 99 1011.0
20260501194144 11 16 4.8 8.0 0.00 0.00 0.00 99 1010.5
20260501194004 11 20 11.3 19.3 0.00 0.03 0.00 99 1015.3
20260501193642 12 132 1.6 3.2 0.00 0.00 0.00 99 1010.7
20260501193141 11 10 1.6 1.6 0.00 0.00 0.00 99 1011.2
20260501193004 11 343 3.2 11.3 0.00 0.03 0.00 99 1015.7
20260501192637 11 16 3.2 4.8 0.00 0.00 0.00 99 1011.3
20260501192135 11 306 4.8 9.7 0.00 0.00 0.00 99 1011.7
20260501191632 12 312 4.8 4.8 0.00 0.00 0.00 99 1011.9
20260501191504 11 350 1.6 9.7 0.00 0.03 0.00 99 1016.6
20260501191129 11 352 4.8 4.8 0.00 0.00 0.00 99 1011.9
20260501191004 11 342 3.2 9.7 0.00 0.03 0.00 99 1016.4
20260501190625 11 276 1.6 1.6 0.00 0.00 0.00 99 1012.2
20260501190504 11 344 4.8 14.5 0.00 0.03 0.00 99 1016.9
20260501190120 11 280 4.8 9.7 0.00 0.00 0.00 99 1012.3
20260501190004 11 336 3.2 11.3 0.00 0.03 0.00 99 1016.7
20260501185617 11 348 1.6 3.2 0.00 0.00 0.00 99 1013.0
20260501185112 11 348 6.4 11.3 0.00 0.00 0.00 99 1013.2
20260501184609 11 32 1.6 1.6 0.00 0.00 0.00 99 1013.2
20260501184504 11 210 1.6 4.8 0.00 0.03 0.00 99 1017.7
20260501184104 11 298 1.6 3.2 0.00 0.00 0.00 99 1013.3
20260501184004 11 0 4.8 9.7 0.00 0.03 0.00 99 1017.9
20260501183601 11 322 3.2 4.8 0.00 0.00 0.00 99 1013.4
20260501183503 11 334 1.6 4.8 0.00 0.05 0.00 99 1017.9
20260501183057 11 357 3.2 3.2 0.00 0.00 0.00 99 1013.6
20260501182554 11 10 1.6 8.0 0.00 0.00 0.00 99 1013.6
20260501182051 11 3 1.6 3.2 0.00 0.00 0.00 99 1013.8
20260501181548 11 295 1.6 3.2 0.00 0.00 0.00 99 1013.8
20260501181503 11 244 1.6 8.0 0.00 0.05 0.00 99 1018.2
20260501181045 11 216 0.0 0.0 0.00 0.00 0.00 99 1013.8
20260501181004 11 256 3.2 9.7 0.00 0.05 0.00 99 1018.3